Elko, NV

7:58 AM PDT on August 25, 2016 (GMT -0700)
Elko Regional

Weather History for KEKO - April, 2013

Change the Weather History Date:

Friday, April 19, 2013

  Actual Average Record
Temperature  
Mean Temperature 43 °F 46 °F  
Max Temperature 60 °F 60 °F 83 °F (1962)
Min Temperature 25 °F 31 °F 14 °F (1895)
Degree Days  
Heating Degree Days 22 19  
Month to date heating degree days 420 401  
Since 1 July heating degree days 6209 6378  
Cooling Degree Days 0 0  
Month to date cooling degree days 0 0  
Year to date cooling degree days 0 0  
Moisture  
Dew Point 25 °F    
Average Humidity 53    
Maximum Humidity 79    
Minimum Humidity 26    
Precipitation  
Precipitation 0.03 in 0.03 in 0.45 in (2001)
Month to date precipitation 0.48 0.61  
Year to date precipitation 2.20 3.57  
Snow  
Snow 0.00 in 0.10 in 4.30 in (1963)
Month to date snowfall 1.3 2.5  
Since 1 July snowfall 42.2 40.1  
Snow Depth 0.00 in    
Sea Level Pressure  
Sea Level Pressure 30.16 in    
Wind  
Wind Speed 8 mph (West)    
Max Wind Speed 35 mph    
Max Gust Speed 43 mph    
Visibility 10 miles    
Events Rain    
T = Trace of Precipitation, MM = Missing Value Source: NWS Daily Summary

Daily Weather History Graph

Daily Weather History Graph

Search for Another Location

Airport or City:

Trip Planner

Search our weather history database for the weather conditions in past years. The results will help you decide how hot, cold, wet, or windy it might be!

Date:

Astronomy

Apr. 19, 2013 Rise Set
Actual Time 5:57 AM PDT 7:27 PM PDT
Civil Twilight 5:29 AM PDT 7:56 PM PDT
Nautical Twilight 4:54 AM PDT 8:30 PM PDT
Astronomical Twilight 4:17 AM PDT 9:07 PM PDT
Moon 1:13 PM PDT (4/19) 2:18 AM PDT (4/19)
Length of Visible Light 14h 27m
Length of Day
13h 29m
Waxing Gibbous, 62% of the Moon is Illuminated
Apr 19
Waxing Gibbous
Apr 25
Full
May 2
Last Quarter
May 9
New
May 17
First Quarter

Hourly Weather History & Observations

Time (PDT) Temp. Windchill Dew Point Humidity Pressure Visibility Wind Dir Wind Speed Gust Speed Precip Events Conditions
12:56 AM 32.0 °F - 18.0 °F 56% 30.30 in 10.0 mi Calm Calm - N/A   Clear
1:56 AM 32.0 °F - 16.0 °F 52% 30.28 in 10.0 mi Calm Calm - N/A   Clear
2:56 AM 28.9 °F - 15.1 °F 56% 30.27 in 10.0 mi Calm Calm - N/A   Clear
3:56 AM 28.9 °F - 14.0 °F 54% 30.27 in 10.0 mi Calm Calm - N/A   Partly Cloudy
4:56 AM 27.0 °F - 15.1 °F 61% 30.25 in 10.0 mi Calm Calm - N/A   Partly Cloudy
5:56 AM 26.1 °F - 15.1 °F 63% 30.27 in 10.0 mi Calm Calm - N/A   Clear
6:56 AM 28.9 °F - 18.0 °F 64% 30.26 in 10.0 mi Calm Calm - N/A   Clear
7:56 AM 35.1 °F 32.2 °F 17.1 °F 48% 30.27 in 10.0 mi WNW 3.5 mph - N/A   Partly Cloudy
8:56 AM 41.0 °F 39.0 °F 19.0 °F 41% 30.25 in 10.0 mi West 3.5 mph - N/A   Mostly Cloudy
9:56 AM 50.0 °F - 21.0 °F 32% 30.21 in 10.0 mi SSW 5.8 mph - N/A   Partly Cloudy
10:56 AM 55.9 °F - 21.9 °F 27% 30.18 in 10.0 mi WSW 15.0 mph 23.0 mph N/A   Partly Cloudy
11:56 AM 57.0 °F - 24.1 °F 28% 30.14 in 10.0 mi WSW 11.5 mph 21.9 mph N/A   Partly Cloudy
12:56 PM 57.0 °F - 25.0 °F 29% 30.12 in 10.0 mi West 15.0 mph 24.2 mph N/A   Overcast
1:56 PM 57.0 °F - 24.1 °F 28% 30.09 in 10.0 mi West 18.4 mph 31.1 mph N/A   Overcast
2:56 PM 57.9 °F - 25.0 °F 28% 30.06 in 10.0 mi WSW 18.4 mph 27.6 mph N/A   Overcast
3:56 PM 57.0 °F - 26.1 °F 30% 30.04 in 10.0 mi WSW 17.3 mph 24.2 mph N/A   Overcast
4:56 PM 54.0 °F - 30.9 °F 41% 30.04 in 10.0 mi NW 20.7 mph 26.5 mph N/A   Overcast
5:56 PM 55.0 °F - 32.0 °F 42% 30.01 in 10.0 mi West 9.2 mph - N/A   Overcast
6:56 PM 46.0 °F 41.9 °F 36.0 °F 68% 30.08 in 10.0 mi NNW 8.1 mph 26.5 mph 0.00 in   Overcast
7:27 PM 44.6 °F 39.2 °F 35.6 °F 71% 30.09 in 10.0 mi NNW 10.4 mph 16.1 mph N/A   Overcast
7:48 PM 42.8 °F 37.5 °F 35.6 °F 76% 30.11 in 7.0 mi WNW 9.2 mph - 0.02 in Rain Light Rain
7:56 PM 41.0 °F 36.4 °F 36.0 °F 82% 30.11 in 10.0 mi SW 6.9 mph - 0.03 in Rain Light Rain
8:56 PM 41.0 °F 39.0 °F 35.1 °F 79% 30.13 in 10.0 mi NNE 3.5 mph - 0.00 in   Partly Cloudy
9:56 PM 41.0 °F 34.3 °F 37.0 °F 86% 30.13 in 7.0 mi North 11.5 mph 17.3 mph 0.00 in Rain Light Rain
10:56 PM 39.9 °F 33.9 °F 35.1 °F 83% 30.11 in 10.0 mi South 9.2 mph - 0.00 in   Overcast
11:56 PM 39.0 °F 34.8 °F 34.0 °F 82% 30.11 in 10.0 mi WSW 5.8 mph - N/A   Overcast